TimeMST,TemperatureF,Dew PointF,Humidity,Sea Level PressureIn,VisibilityMPH,Wind Direction,Wind SpeedMPH,Gust SpeedMPH,PrecipitationIn,Events,Conditions,WindDirDegrees,DateUTC
12:53 AM,35.1,30.0,82,30.34,10.0,Calm,Calm,-,N/A,,Clear,0,2014-03-08 07:53:00
1:53 AM,34.0,30.0,85,30.33,10.0,Calm,Calm,-,N/A,,Clear,0,2014-03-08 08:53:00
2:53 AM,32.0,28.0,85,30.33,10.0,WSW,3.5,-,N/A,,Clear,250,2014-03-08 09:53:00
3:53 AM,30.9,28.0,89,30.32,10.0,Calm,Calm,-,N/A,,Clear,0,2014-03-08 10:53:00
4:53 AM,30.9,28.0,89,30.34,10.0,SW,4.6,-,N/A,,Clear,230,2014-03-08 11:53:00
5:53 AM,30.9,28.0,89,30.36,10.0,Calm,Calm,-,N/A,,Clear,0,2014-03-08 12:53:00
6:53 AM,30.0,27.0,88,30.37,10.0,Calm,Calm,-,N/A,,Clear,0,2014-03-08 13:53:00
7:53 AM,28.9,27.0,92,30.40,10.0,NW,3.5,-,N/A,,Clear,320,2014-03-08 14:53:00
8:53 AM,37.0,30.0,76,30.39,10.0,Variable,3.5,-,N/A,,Clear,0,2014-03-08 15:53:00
9:53 AM,42.1,34.0,73,30.39,10.0,South,3.5,-,N/A,,Clear,190,2014-03-08 16:53:00
10:53 AM,46.0,35.1,66,30.38,10.0,SE,5.8,-,N/A,,Clear,140,2014-03-08 17:53:00
11:53 AM,50.0,36.0,59,30.35,10.0,SW,3.5,-,N/A,,Clear,220,2014-03-08 18:53:00
12:53 PM,53.1,36.0,52,30.32,10.0,South,4.6,-,N/A,,Clear,180,2014-03-08 19:53:00
1:53 PM,59.0,35.1,41,30.27,10.0,SE,8.1,-,N/A,,Clear,130,2014-03-08 20:53:00
2:53 PM,60.1,33.1,36,30.25,10.0,SE,12.7,-,N/A,,Clear,130,2014-03-08 21:53:00
3:53 PM,60.1,34.0,38,30.22,10.0,ESE,11.5,-,N/A,,Clear,110,2014-03-08 22:53:00
4:53 PM,60.1,36.0,41,30.19,10.0,SSE,5.8,-,N/A,,Clear,150,2014-03-08 23:53:00
5:53 PM,57.9,35.1,42,30.19,10.0,East,4.6,-,N/A,,Clear,100,2014-03-09 00:53:00
6:53 PM,55.9,34.0,44,30.18,10.0,East,3.5,-,N/A,,Clear,90,2014-03-09 01:53:00
7:53 PM,55.0,34.0,45,30.17,10.0,ESE,6.9,-,N/A,,Mostly Cloudy,120,2014-03-09 02:53:00
8:53 PM,54.0,33.1,45,30.15,10.0,ESE,5.8,-,N/A,,Clear,110,2014-03-09 03:53:00
9:53 PM,54.0,34.0,47,30.15,10.0,ESE,8.1,-,N/A,,Partly Cloudy,120,2014-03-09 04:53:00
10:53 PM,53.1,35.1,50,30.15,10.0,SE,4.6,-,N/A,,Clear,130,2014-03-09 05:53:00
11:53 PM,51.1,36.0,56,30.14,10.0,Calm,Calm,-,N/A,,Overcast,0,2014-03-09 06:53:00